�N����,����,����,����,����,�C��,���x,�~����,�S�V����,�ő�u�ԕ���,,,,,
,,,,,,,,,����,����,����,�N��,,
yyyy/mm/dd,hh:mm:ss,(16),16����,m/s,��,%,mm,KW/�u,(16),16����,m/s,Time,,
2017/12/1,1:00:00,16,�É�,0,-11.3,78.4,0,0,1,�k�k��,2.1,15,,
2017/12/1,2:00:00,12,��,0.4,-13.1,78.5,0,0,12,��,1.8,51,,
2017/12/1,3:00:00,16,�É�,0,-12.9,82.1,0,0,13,���k��,1.9,31,,
2017/12/1,4:00:00,13,���k��,1.1,-12.4,85.7,0,0,13,���k��,4.8,29,,
2017/12/1,5:00:00,16,�É�,0,-12.6,83.4,0,0,13,���k��,2.5,29,,
2017/12/1,6:00:00,13,���k��,1.4,-12.7,84.9,0,0,13,���k��,2.1,32,,
2017/12/1,7:00:00,13,���k��,2.1,-11.7,86.6,0,0.02,12,��,3.2,17,,
2017/12/1,8:00:00,13,���k��,1,-8.6,77.6,0,0.17,12,��,4.2,33,,
2017/12/1,9:00:00,14,�k��,0.5,-4.5,53.5,0,0.34,14,�k��,1.3,8,,
2017/12/1,10:00:00,12,��,6.7,-0.9,35.7,0,0.47,12,��,10.9,44,,
2017/12/1,11:00:00,12,��,7.2,0.2,29,0,0.54,12,��,9.2,20,,
2017/12/1,12:00:00,13,���k��,3,0.1,25.8,0,0.56,11,���쐼,10.8,1,,
2017/12/1,13:00:00,13,���k��,3.1,0.1,21.5,0,0.5,15,�k�k��,6.3,27,,
2017/12/1,14:00:00,16,�k,1.6,-0.3,22.3,0,0.41,1,�k�k��,5.7,50,,
2017/12/1,15:00:00,13,���k��,2.9,-1.6,30.3,0,0.24,16,�k,6,14,,
2017/12/1,16:00:00,13,���k��,1.5,-2.7,32.7,0,0.07,12,��,8.5,24,,
2017/12/1,17:00:00,13,���k��,1.8,-5.2,38.9,0,0,12,��,7.2,24,,
2017/12/1,18:00:00,16,�É�,0,-4.7,46.4,0,0,12,��,5.6,22,,
2017/12/1,19:00:00,16,�É�,0,-9.1,57.9,0,0,12,��,1.5,42,,
2017/12/1,20:00:00,16,�É�,0,-10.7,59.3,0,0,12,��,0.7,59,,
2017/12/1,21:00:00,11,���쐼,2.2,-12.1,67.8,0,0,10,�쐼,3.5,57,,
2017/12/1,22:00:00,16,�É�,0,-11.4,73,0,0,11,���쐼,2.8,2,,
2017/12/1,23:00:00,16,�É�,0,-12.6,73.4,0,0,11,���쐼,2.1,9,,
2017/12/1,0:00:00,16,�É�,0,-12.7,78.6,0,0,13,���k��,1.7,37,,
2017/12/2,1:00:00,13,���k��,1.1,-12.8,79.2,0,0,12,��,3.2,57,,
2017/12/2,2:00:00,13,���k��,0.3,-13.1,79.4,0,0,12,��,3.6,32,,
2017/12/2,3:00:00,12,��,2.3,-13.3,81.3,0,0,12,��,3.2,23,,
2017/12/2,4:00:00,12,��,1.2,-14,80.2,0,0,12,��,3.2,31,,
2017/12/2,5:00:00,12,��,3.1,-13.2,83.3,0,0,12,��,3.9,56,,
2017/12/2,6:00:00,13,���k��,1.2,-13,83.2,0,0,12,��,3.5,47,,
2017/12/2,7:00:00,16,�É�,0,-12.5,83.3,0,0.02,12,��,3.1,9,,
2017/12/2,8:00:00,13,���k��,1.3,-9,71.2,0,0.15,13,���k��,2.5,50,,
2017/12/2,9:00:00,16,�É�,0,-4.7,53,0,0.32,12,��,2.5,2,,
2017/12/2,10:00:00,16,�É�,0,-1,28.6,0,0.46,14,�k��,1.1,22,,
2017/12/2,11:00:00,15,�k�k��,0.9,-0.7,22.2,0,0.53,1,�k�k��,6.9,50,,
2017/12/2,12:00:00,16,�É�,0,0.4,21.7,0,0.54,14,�k��,3.6,6,,
2017/12/2,13:00:00,5,���쓌,0.9,1.2,27.9,0,0.49,4,��,4.7,13,,
2017/12/2,14:00:00,5,���쓌,0.9,0.9,31.5,0,0.39,5,���쓌,4.8,15,,
2017/12/2,15:00:00,16,�É�,0,0.5,33.1,0,0.23,4,��,3.5,9,,
2017/12/2,16:00:00,4,��,0.4,-3.5,42.7,0,0.05,4,��,2.6,53,,
2017/12/2,17:00:00,16,�É�,0.2,-2,42.4,0,0,16,�k,5.3,41,,
2017/12/2,18:00:00,16,�É�,0,-4.4,49.5,0,0,13,���k��,2.2,47,,
2017/12/2,19:00:00,16,�É�,0,-9,57.4,0,0,12,��,2.6,1,,
2017/12/2,20:00:00,16,�É�,0,-9.1,66.4,0,0,12,��,2.2,8,,
2017/12/2,21:00:00,16,�É�,0,-7.1,72.9,0,0,11,���쐼,2.8,22,,
2017/12/2,22:00:00,16,�É�,0,-9.6,75.8,0,0,12,��,1.9,29,,
2017/12/2,23:00:00,12,��,0.4,-11.4,79.5,0,0,12,��,18,52,,
2017/12/2,0:00:00,13,���k��,0.7,-10.3,84.4,0,0,13,���k��,6.6,2,,
2017/12/3,1:00:00,12,��,2.3,-10.6,81.7,0,0,12,��,3.6,58,,
2017/12/3,2:00:00,12,��,0.8,-12,81,0,0,12,��,3.3,9,,
2017/12/3,3:00:00,13,���k��,0.3,-11,84.3,0,0,12,��,3.3,6,,
2017/12/3,4:00:00,12,��,1.5,-10.8,83.6,0,0,12,��,3.8,9,,
2017/12/3,5:00:00,12,��,1,-11.2,83.7,0,0,12,��,3.4,42,,
2017/12/3,6:00:00,12,��,2,-11,84.6,0,0,12,��,3.4,1,,
2017/12/3,7:00:00,12,��,2.2,-10.1,86.8,0,0.01,12,��,3.4,40,,
2017/12/3,8:00:00,16,�É�,0.2,-5.6,89,0,0.11,12,��,3.3,16,,
2017/12/3,9:00:00,10,�쐼,0.6,2.1,70,0,0.32,10,�쐼,3.2,56,,
2017/12/3,10:00:00,8,��,3.4,5.8,59.8,0,0.44,8,��,6.1,52,,
2017/12/3,11:00:00,8,��,3.1,5.8,56.9,0,0.48,7,��쓌,6.4,10,,
2017/12/3,12:00:00,9,��쐼,0.4,4.7,65.7,0,0.23,8,��,5.6,12,,
2017/12/3,13:00:00,16,�É�,0,4,71.4,0,0.16,10,�쐼,1.7,8,,
2017/12/3,14:00:00,14,�k��,2.5,0.6,75.2,0,0.11,14,�k��,4.7,53,,
2017/12/3,15:00:00,14,�k��,2,0.3,82.3,0,0.09,15,�k�k��,4.7,57,,
2017/12/3,16:00:00,16,�É�,0.1,-0.9,81,0,0.03,14,�k��,5.1,3,,
2017/12/3,17:00:00,16,�É�,0.1,-3.5,79.5,0,0,12,��,1.6,51,,
2017/12/3,18:00:00,14,�k��,0.3,-2.7,86.1,0,0,14,�k��,3.2,41,,
2017/12/3,19:00:00,16,�É�,0,-4.2,86.1,0,0,13,���k��,2.9,30,,
2017/12/3,20:00:00,16,�É�,0,-4,88.4,0,0,7,��쓌,2.1,0,,
2017/12/3,21:00:00,16,�É�,0.1,-6.3,87.5,0,0,12,��,3.2,42,,
2017/12/3,22:00:00,12,��,1.8,-5.8,90.9,0,0,12,��,3.7,30,,
2017/12/3,23:00:00,16,�É�,0.1,-7.1,92.6,0,0,13,���k��,3.6,4,,
2017/12/3,0:00:00,13,���k��,0.9,-6.1,92.6,0,0,12,��,3.6,32,,
2017/12/4,1:00:00,16,�É�,0,-7.9,92.5,0,0,13,���k��,3.3,2,,
2017/12/4,2:00:00,14,�k��,1.1,-5.5,95.5,0,0,13,���k��,6,59,,
2017/12/4,3:00:00,12,��,0.9,-6.2,95.4,0,0,14,�k��,4.6,0,,
2017/12/4,4:00:00,16,�É�,0,-9.4,93.8,0,0,11,���쐼,6.8,26,,
2017/12/4,5:00:00,13,���k��,0.3,-8.3,93.1,0,0,12,��,3.7,51,,
2017/12/4,6:00:00,16,�É�,0,-7.4,93.7,0,0,12,��,4.4,29,,
2017/12/4,7:00:00,16,�É�,0,-9.3,94,0,0.01,12,��,4.4,9,,
2017/12/4,8:00:00,16,�É�,0,-5,96.9,0,0.1,14,�k��,0.3,33,,
2017/12/4,9:00:00,16,�É�,0,-1.2,84.9,0,0.26,11,���쐼,0.9,47,,
2017/12/4,10:00:00,12,��,1.5,0.9,53.8,0,0.4,12,��,2.6,56,,
2017/12/4,11:00:00,7,��쓌,0.8,2.1,45.5,0,0.48,10,�쐼,7.2,16,,
2017/12/4,12:00:00,16,�É�,0,3,39.9,0,0.46,9,��쐼,3,47,,
2017/12/4,13:00:00,16,�É�,0.2,2.9,44,0,0.42,6,�쓌,3.2,49,,
2017/12/4,14:00:00,4,��,0.3,2.8,48.9,0,0.34,5,���쓌,2.7,31,,
2017/12/4,15:00:00,16,�É�,0,2.1,53.6,0,0.16,4,��,1.2,3,,
2017/12/4,16:00:00,16,�É�,0,-2.5,65.6,0,0.03,16,�É�,0,0,,
2017/12/4,17:00:00,16,�É�,0,-4.4,69.4,0,0,16,�É�,0,0,,
2017/12/4,18:00:00,14,�k��,0.4,-0.9,74.6,0,0,14,�k��,3.8,38,,
2017/12/4,19:00:00,13,���k��,0.3,-2,78.7,0,0,13,���k��,1.7,44,,
2017/12/4,20:00:00,16,�É�,0,-0.8,72.1,0,0,14,�k��,4,26,,
2017/12/4,21:00:00,14,�k��,1,-1.1,71,0,0,14,�k��,3.5,45,,
2017/12/4,22:00:00,13,���k��,1.5,-0.9,70.7,0,0,13,���k��,4.1,31,,
2017/12/4,23:00:00,13,���k��,1.8,-2.3,83.8,0,0,13,���k��,4.5,38,,
2017/12/4,0:00:00,14,�k��,2.5,-2.5,93,0,0,14,�k��,5.8,57,,
2017/12/5,1:00:00,14,�k��,2.2,-2.4,95.6,0,0,13,���k��,5,46,,
2017/12/5,2:00:00,14,�k��,1.4,-2.3,96.3,0,0,14,�k��,2.1,54,,
2017/12/5,3:00:00,14,�k��,2.4,-2.4,96.4,0,0,10,�쐼,6,7,,
2017/12/5,4:00:00,14,�k��,2.9,-2.7,96.7,0,0,14,�k��,6.5,15,,
2017/12/5,5:00:00,14,�k��,3.6,-2.7,97.3,0,0,5,���쓌,7.3,49,,
2017/12/5,6:00:00,13,���k��,4.2,-2.6,97.8,0,0,13,���k��,6.5,56,,
2017/12/5,7:00:00,13,���k��,4.3,-1.9,98.2,0,0.01,13,���k��,6.9,53,,
2017/12/5,8:00:00,13,���k��,4.3,-1.5,98.5,0,0.04,13,���k��,7.2,14,,
2017/12/5,9:00:00,14,�k��,4.1,-1.1,96.6,0,0.08,13,���k��,7.6,26,,
2017/12/5,10:00:00,15,�k�k��,3.6,-0.8,94.6,0,0.09,14,�k��,7.7,13,,
2017/12/5,11:00:00,15,�k�k��,3.8,0.5,86.6,0,0.26,14,�k��,7.5,43,,
2017/12/5,12:00:00,15,�k�k��,1.4,1.2,71.6,0,0.47,13,���k��,7.7,25,,
2017/12/5,13:00:00,14,�k��,2.9,1.5,60.3,2,0.48,14,�k��,5,56,,
2017/12/5,14:00:00,14,�k��,1.9,1.2,64.3,2,0.37,13,���k��,5.5,24,,
2017/12/5,15:00:00,13,���k��,1.8,-0.3,58.3,0.5,0.22,13,���k��,3.1,52,,
2017/12/5,16:00:00,13,���k��,0.7,-1.4,68.5,0.5,0.06,13,���k��,4,16,,
2017/12/5,17:00:00,15,�k�k��,1.6,-1,75.9,0,0,15,�k�k��,5.1,56,,
2017/12/5,18:00:00,13,���k��,2.1,-4,67.6,0,0,15,�k�k��,6,6,,
2017/12/5,19:00:00,16,�É�,0,-3.6,77.6,0,0,12,��,3.5,12,,
2017/12/5,20:00:00,13,���k��,1.2,-9,74,0,0,13,���k��,2.8,14,,
2017/12/5,21:00:00,13,���k��,1,-9.6,85.2,0,0,12,��,3.3,30,,
2017/12/5,22:00:00,13,���k��,2.7,-9.8,89.3,0,0,12,��,5,10,,
2017/12/5,23:00:00,13,���k��,1,-11.3,91.2,0,0,12,��,5,47,,
2017/12/5,0:00:00,13,���k��,0.5,-10.6,89.5,0,0,12,��,4.1,9,,
2017/12/6,1:00:00,14,�k��,1.6,-11.8,93.2,0,0,13,���k��,3.4,55,,
2017/12/6,2:00:00,16,�É�,0.1,-13.9,90.1,0,0,13,���k��,3.8,3,,
2017/12/6,3:00:00,13,���k��,1.6,-11.3,94.3,0,0,14,�k��,4.4,22,,
2017/12/6,4:00:00,13,���k��,2,-11.6,92.1,0,0,12,��,6.1,13,,
2017/12/6,5:00:00,13,���k��,1.7,-13.3,88.7,0,0,12,��,3.7,17,,
2017/12/6,6:00:00,16,�É�,0.2,-14.2,87.3,0,0,13,���k��,2.6,38,,
2017/12/6,7:00:00,13,���k��,1.6,-13.5,91.2,0,0.01,13,���k��,2.4,59,,
2017/12/6,8:00:00,13,���k��,1.7,-11.9,88.4,0,0.14,12,��,6.4,59,,
2017/12/6,9:00:00,13,���k��,2.2,-6.6,72.4,0,0.32,13,���k��,4.9,6,,
2017/12/6,10:00:00,14,�k��,1.6,-3.1,46.6,0,0.44,13,���k��,4.1,57,,
2017/12/6,11:00:00,13,���k��,4.4,-1.9,29.8,0,0.51,12,��,8.7,49,,
2017/12/6,12:00:00,12,��,5.9,-2,31.7,0,0.53,12,��,11.7,10,,
2017/12/6,13:00:00,12,��,7,-2.4,33.2,0,0.48,12,��,11.1,59,,
2017/12/6,14:00:00,13,���k��,6.6,-2.6,33.9,0,0.37,12,��,12.1,24,,
2017/12/6,15:00:00,12,��,6.1,-2.9,33.7,0,0.23,13,���k��,10.3,6,,
2017/12/6,16:00:00,13,���k��,1.1,-4.9,36.8,0,0.06,12,��,8.3,4,,
2017/12/6,17:00:00,14,�k��,0.3,-6.7,41.6,0,0,12,��,3,47,,
2017/12/6,18:00:00,16,�É�,0,-6.6,52.6,0,0,2,�k��,1.8,56,,
2017/12/6,19:00:00,16,�É�,0,-14.2,56.8,0,0,11,���쐼,0.8,31,,
2017/12/6,20:00:00,16,�É�,0,-16,66.2,0,0,14,�k��,1,47,,
2017/12/6,21:00:00,13,���k��,0.6,-15.3,80.1,0,0,14,�k��,1.2,42,,
2017/12/6,22:00:00,12,��,1,-14.2,81.7,0,0,12,��,1.5,53,,
2017/12/6,23:00:00,13,���k��,0.9,-17.9,79.3,0,0,12,��,3,5,,
2017/12/6,0:00:00,16,�É�,0.1,-16.7,81.7,0,0,11,���쐼,6.8,47,,
2017/12/7,1:00:00,13,���k��,2.5,-16.4,83.6,0,0,12,��,4.2,41,,
2017/12/7,2:00:00,13,���k��,1.3,-16.2,85.5,0,0,11,���쐼,1.9,32,,
2017/12/7,3:00:00,12,��,2,-16.9,81.3,0,0,12,��,4.2,56,,
2017/12/7,4:00:00,16,�É�,0.1,-16.7,83.9,0,0,12,��,3.9,12,,
2017/12/7,5:00:00,13,���k��,2.3,-15.6,82.4,0,0.01,12,��,3.4,47,,
2017/12/7,6:00:00,12,��,1.4,-17.7,79.6,0,0.01,12,��,3.3,30,,
2017/12/7,7:00:00,13,���k��,1,-17.5,83,0,0.01,12,��,3.6,59,,
2017/12/7,8:00:00,13,���k��,2.2,-14.6,78.7,0,0.14,12,��,4.2,33,,
2017/12/7,9:00:00,13,���k��,0.8,-12.2,60.9,0,0.3,12,��,2.8,23,,
2017/12/7,10:00:00,15,�k�k��,0.4,-5.9,47.1,0,0.44,13,���k��,3.1,30,,
2017/12/7,11:00:00,16,�É�,0,-2,31.6,0,0.5,12,��,2.2,2,,
2017/12/7,12:00:00,16,�É�,0,-1.2,36.7,0,0.52,3,���k��,1,34,,
2017/12/7,13:00:00,3,���k��,0.5,-1.1,40.6,0,0.46,3,���k��,2.9,39,,
2017/12/7,14:00:00,16,�É�,0,-1.8,39.1,0,0.31,3,���k��,3,22,,
2017/12/7,15:00:00,16,�É�,0,-2.1,45.2,0,0.09,16,�É�,0,0,,
2017/12/7,16:00:00,14,�k��,0.6,-3,49,0,0.02,2,�k��,2.8,42,,
2017/12/7,17:00:00,16,�É�,0,-2.9,53.7,0,0,14,�k��,1,49,,
2017/12/7,18:00:00,16,�É�,0,-4.8,79,0,0,13,���k��,1.5,48,,
2017/12/7,19:00:00,16,�É�,0.2,-4.9,87,0,0,14,�k��,6.7,55,,
2017/12/7,20:00:00,16,�É�,0.2,-5,90,0,0,14,�k��,8.1,46,,
2017/12/7,21:00:00,14,�k��,2.6,-4.8,92.7,0,0,14,�k��,5,5,,
2017/12/7,22:00:00,14,�k��,2.7,-4.9,94.3,0,0,13,���k��,4.4,0,,
2017/12/7,23:00:00,14,�k��,3.5,-4.8,95.1,0,0,13,���k��,5.4,58,,
2017/12/7,0:00:00,14,�k��,3.2,-4.8,95.9,0,0,14,�k��,5.9,54,,
2017/12/8,1:00:00,14,�k��,4.3,-5,95.9,0,0,14,�k��,6.8,50,,
2017/12/8,2:00:00,14,�k��,1.9,-5.4,95.6,0,0,14,�k��,6.4,23,,
2017/12/8,3:00:00,14,�k��,4,-5.7,95.1,0,0,14,�k��,7.8,26,,
2017/12/8,4:00:00,13,���k��,3.4,-5.6,96.1,0,0,13,���k��,7,38,,
2017/12/8,5:00:00,13,���k��,2.5,-5.4,96.6,0,0,13,���k��,5.7,22,,
2017/12/8,6:00:00,14,�k��,1.8,-5.1,96.9,0,0,13,���k��,7.7,16,,
2017/12/8,7:00:00,14,�k��,4,-4.4,97.1,0,0.01,14,�k��,5.9,59,,
2017/12/8,8:00:00,14,�k��,3.6,-3.5,95.7,0,0.06,14,�k��,7,48,,
2017/12/8,9:00:00,14,�k��,1.9,-2.4,79.9,0,0.22,14,�k��,5.7,4,,
2017/12/8,10:00:00,14,�k��,1.4,-2,69.3,0,0.3,14,�k��,5.3,18,,
2017/12/8,11:00:00,13,���k��,2.9,-1.5,66.5,0,0.31,13,���k��,5.2,57,,
2017/12/8,12:00:00,14,�k��,0.8,-0.7,59.5,0,0.26,14,�k��,3.4,2,,
2017/12/8,13:00:00,16,�É�,0,-0.8,39.5,0,0.45,13,���k��,2,29,,
2017/12/8,14:00:00,13,���k��,1.3,-1.7,31.6,0,0.38,13,���k��,2.5,56,,
2017/12/8,15:00:00,16,�k,2.2,-0.9,41.3,2,0.23,15,�k�k��,5.4,55,,
2017/12/8,16:00:00,15,�k�k��,2.5,-2.4,49.8,0.5,0.05,15,�k�k��,5.9,50,,
2017/12/8,17:00:00,14,�k��,2.7,-3.5,54.7,0,0,14,�k��,5.7,6,,
2017/12/8,18:00:00,14,�k��,2.2,-4.4,60.6,0,0,14,�k��,4.8,0,,
2017/12/8,19:00:00,14,�k��,2,-5.7,65.3,0,0,14,�k��,4.8,35,,
2017/12/8,20:00:00,14,�k��,2.3,-6.1,64.8,0,0,14,�k��,4.7,58,,
2017/12/8,21:00:00,15,�k�k��,1.2,-6.2,59.6,0,0,15,�k�k��,6.1,7,,
2017/12/8,22:00:00,14,�k��,2,-6.6,60.9,0,0,15,�k�k��,5.4,6,,
2017/12/8,23:00:00,14,�k��,2.5,-6.8,61.7,0,0,13,���k��,5.5,4,,
2017/12/8,0:00:00,14,�k��,1.8,-7.9,60.1,0,0,14,�k��,5.2,35,,
2017/12/9,1:00:00,13,���k��,2.5,-11.8,69.5,0,0,13,���k��,4.1,51,,
2017/12/9,2:00:00,13,���k��,3.1,-10.4,71.5,0,0,1,�k�k��,4.4,23,,
2017/12/9,3:00:00,13,���k��,3.6,-9.9,71.7,0,0,13,���k��,5.3,57,,
2017/12/9,4:00:00,13,���k��,3.5,-9.9,72.7,0,0,14,�k��,5,5,,
2017/12/9,5:00:00,13,���k��,2.2,-10.8,71.4,0,0,13,���k��,5,26,,
2017/12/9,6:00:00,16,�É�,0,-13.2,71.8,0,0,12,��,3.8,2,,
2017/12/9,7:00:00,16,�É�,0,-14.7,76.7,0,0.01,9,��쐼,1.8,40,,
2017/12/9,8:00:00,16,�É�,0,-15.6,77.5,0,0.14,16,�É�,0.2,29,,
2017/12/9,9:00:00,16,�É�,0,-11.5,58.4,0,0.33,13,���k��,1.7,13,,
2017/12/9,10:00:00,16,�É�,0,-6.1,32.8,0,0.44,16,�É�,0.2,45,,
2017/12/9,11:00:00,16,�É�,0,-2.7,26.7,0,0.51,16,�É�,0,0,,
2017/12/9,12:00:00,16,�É�,0,-3.9,29.2,0.5,0.54,16,�É�,0,0,,
2017/12/9,13:00:00,16,�É�,0,-3,28.8,0.5,0.47,16,�É�,0,0,,
2017/12/9,14:00:00,16,�É�,0,-2.9,24.3,0.5,0.39,16,�É�,0,0,,
2017/12/9,15:00:00,16,�É�,0,-8.4,33.8,0,0.17,16,�É�,0,0,,
2017/12/9,16:00:00,16,�É�,0,-14,46.8,0,0.05,14,�k��,0.3,48,,
2017/12/9,17:00:00,13,���k��,0.9,-11.6,59.2,0,0,14,�k��,1.8,58,,
2017/12/9,18:00:00,14,�k��,1.1,-9.9,69.3,0,0,13,���k��,2.7,12,,
2017/12/9,19:00:00,14,�k��,1.9,-10.1,73.6,0,0,12,��,5.3,56,,
2017/12/9,20:00:00,13,���k��,1,-12.7,75,0,0,12,��,5.3,5,,
2017/12/9,21:00:00,14,�k��,1.4,-14,79.1,0,0,13,���k��,3.9,11,,
2017/12/9,22:00:00,13,���k��,1.4,-15.4,81.8,0,0,12,��,4,12,,
2017/12/9,23:00:00,12,��,2.9,-17.3,81.3,0,0,12,��,3.8,59,,
2017/12/9,0:00:00,12,��,1.7,-17.5,84.3,0,0,12,��,3.9,0,,
2017/12/10,1:00:00,13,���k��,1,-17.1,86,0,0,12,��,3.7,29,,
2017/12/10,2:00:00,12,��,2,-16.8,86,0,0,12,��,3.9,14,,
2017/12/10,3:00:00,13,���k��,2.7,-16.8,87.5,0,0,12,��,3.9,51,,
2017/12/10,4:00:00,12,��,0.5,-17.3,87.2,0,0,13,���k��,3.1,2,,
2017/12/10,5:00:00,13,���k��,1.5,-17.1,90.5,0,0,12,��,3.5,7,,
2017/12/10,6:00:00,13,���k��,1.2,-16.9,86.3,0,0,13,���k��,2.9,11,,
2017/12/10,7:00:00,13,���k��,0.4,-16.3,86.9,0,0.01,14,�k��,2.6,0,,
2017/12/10,8:00:00,12,��,2.9,-15.6,83.7,0,0.12,12,��,4.1,51,,
2017/12/10,9:00:00,13,���k��,1.6,-12.2,65.7,0,0.29,12,��,3.3,6,,
2017/12/10,10:00:00,16,�É�,0.1,-8.4,47.2,0,0.43,12,��,2.5,22,,
2017/12/10,11:00:00,16,�É�,0,-0.5,36.2,0,0.51,12,��,2.2,0,,
2017/12/10,12:00:00,4,��,0.4,0.5,44.1,0,0.42,4,��,2.7,59,,
2017/12/10,13:00:00,4,��,2.5,0.4,41,0,0.46,5,���쓌,4.4,4,,
2017/12/10,14:00:00,3,���k��,1.2,-0.6,46.9,0,0.31,4,��,3.9,19,,
2017/12/10,15:00:00,16,�É�,0,-1.3,47.3,0,0.19,3,���k��,2.6,20,,
2017/12/10,16:00:00,16,�É�,0,-2.4,51.3,0,0.03,3,���k��,1.3,6,,
2017/12/10,17:00:00,16,�É�,0,-5.4,57.3,0,0,1,�k�k��,0.4,31,,
2017/12/10,18:00:00,13,���k��,0.6,-4.1,63.8,0,0,13,���k��,6.8,17,,
2017/12/10,19:00:00,14,�k��,1.8,-3.2,60.8,0,0,14,�k��,3.2,51,,
2017/12/10,20:00:00,14,�k��,1.2,-2.9,61.5,0,0,2,�k��,2.7,39,,
2017/12/10,21:00:00,14,�k��,2.4,-3,63.2,0,0,14,�k��,3.7,58,,
2017/12/10,22:00:00,14,�k��,2.2,-3.9,73.1,0,0,13,���k��,5.2,24,,
2017/12/10,23:00:00,14,�k��,2.8,-4,90.5,0,0,13,���k��,5.6,50,,
2017/12/10,0:00:00,13,���k��,3.2,-3.9,93.8,0,0,13,���k��,5.9,1,,
2017/12/11,1:00:00,14,�k��,3.8,-3.7,95.7,0,0,2,�k��,6.9,30,,
2017/12/11,2:00:00,13,���k��,4.3,-3.7,97,0,0,14,�k��,7.4,35,,
2017/12/11,3:00:00,13,���k��,3.9,-3.6,97.5,0,0,13,���k��,6.7,38,,
2017/12/11,4:00:00,13,���k��,4.7,-3.8,97.5,0,0,11,���쐼,7.2,55,,
2017/12/11,5:00:00,14,�k��,4.1,-3.2,97.4,0,0,14,�k��,7.4,49,,
2017/12/11,6:00:00,13,���k��,3.5,-3,96.3,0,0,13,���k��,6.1,1,,
2017/12/11,7:00:00,13,���k��,3.4,-2.9,93.6,0,0.01,13,���k��,6,19,,
2017/12/11,8:00:00,13,���k��,3.8,-2.6,91.5,0,0.02,12,��,5.7,58,,
2017/12/11,9:00:00,14,�k��,2.4,-1.7,93.4,0,0.06,12,��,5.3,0,,
2017/12/11,10:00:00,13,���k��,2.4,-0.7,89.6,0,0.18,13,���k��,5.3,37,,
2017/12/11,11:00:00,16,�É�,0.2,0.3,85.9,0,0.19,14,�k��,0.7,56,,
2017/12/11,12:00:00,16,�É�,0,0.9,74.6,0,0.26,16,�k,0.6,18,,
2017/12/11,13:00:00,15,�k�k��,0.3,0.9,77,0,0.18,14,�k��,3.2,27,,
2017/12/11,14:00:00,14,�k��,1.2,1.1,77.3,1,0.13,13,���k��,3.4,53,,
2017/12/11,15:00:00,16,�É�,0,0.4,87.6,1,0.05,3,���k��,1.2,58,,
2017/12/11,16:00:00,14,�k��,0.4,0.3,89.4,1,0.03,14,�k��,2.1,51,,
2017/12/11,17:00:00,16,�É�,0,-0.4,91.2,0,0,14,�k��,3.6,27,,
2017/12/11,18:00:00,16,�É�,0.1,-1.7,91.7,0.5,0,3,���k��,3.3,22,,
2017/12/11,19:00:00,13,���k��,1,-3.7,92.2,0,0,13,���k��,3.7,18,,
2017/12/11,20:00:00,13,���k��,0.4,-4.7,94,0,0,13,���k��,2.3,44,,
2017/12/11,21:00:00,13,���k��,1.9,-8.4,94.6,0,0,13,���k��,3.9,16,,
2017/12/11,22:00:00,13,���k��,1.1,-8.4,94.7,0,0,12,��,3.8,43,,
2017/12/11,23:00:00,16,�É�,0,-5.1,97.2,0,0,12,��,3.7,26,,
2017/12/11,0:00:00,14,�k��,2.4,-3.4,98.3,0,0,14,�k��,4.9,54,,
2017/12/12,1:00:00,13,���k��,3.3,-2,98.3,0,0,13,���k��,5.5,33,,
2017/12/12,2:00:00,14,�k��,0.5,-2.7,98.2,0,0,13,���k��,3.5,21,,
2017/12/12,3:00:00,13,���k��,0.3,-3.2,97.8,0,0,13,���k��,2.6,57,,
2017/12/12,4:00:00,12,��,6.7,-0.4,60,0,0,12,��,10.3,42,,
2017/12/12,5:00:00,12,��,5.1,-0.6,55.5,0,0,12,��,9.5,12,,
2017/12/12,6:00:00,10,�쐼,1.6,-1.3,63,0,0,12,��,5.8,1,,
2017/12/12,7:00:00,16,�É�,0,-2.3,80.5,0,0.01,11,���쐼,1.2,45,,
2017/12/12,8:00:00,16,�É�,0,-2.6,84.5,0,0.03,3,���k��,2.2,35,,
2017/12/12,9:00:00,9,��쐼,2.7,-1.4,63.6,0,0.11,11,���쐼,8.5,13,,
2017/12/12,10:00:00,16,�É�,0,-1.6,64.1,0,0.17,12,��,7.5,27,,
2017/12/12,11:00:00,12,��,4,-1.7,46.4,0,0.34,11,���쐼,8.9,43,,
2017/12/12,12:00:00,12,��,5.6,-2.6,62.9,0,0.35,11,���쐼,10.2,45,,
2017/12/12,13:00:00,11,���쐼,2.6,-2.4,62.8,0,0.25,12,��,5.2,0,,
2017/12/12,14:00:00,12,��,1.7,-2,56.4,0,0.31,12,��,5.3,32,,
2017/12/12,15:00:00,12,��,5.8,-2.6,43.6,0,0.22,11,���쐼,9.8,34,,
2017/12/12,16:00:00,13,���k��,3.9,-2.6,39.9,0,0.02,12,��,10.9,11,,
2017/12/12,17:00:00,13,���k��,1.5,-3.9,42.2,0,0,13,���k��,7.1,21,,
2017/12/12,18:00:00,13,���k��,1.1,-4.7,48.3,0,0,12,��,6.9,59,,
2017/12/12,19:00:00,12,��,6,-3.1,40.3,0,0,12,��,10.1,34,,
2017/12/12,20:00:00,16,�É�,0.2,-4.9,41.5,0,0,12,��,11.4,19,,
2017/12/12,21:00:00,12,��,5.5,-3.7,49.3,0,0,11,���쐼,9.9,56,,
2017/12/12,22:00:00,11,���쐼,5.4,-3.4,40.6,0,0,12,��,8.9,34,,
2017/12/12,23:00:00,15,�k�k��,1.8,-6.5,42.1,0,0,12,��,10,21,,
2017/12/12,0:00:00,11,���쐼,4.7,-3.6,41.2,0,0,11,���쐼,8.5,45,,
2017/12/13,1:00:00,12,��,5.1,-3.6,41.2,0,0,11,���쐼,9,31,,
2017/12/13,2:00:00,12,��,4.7,-3.3,43.6,0,0,12,��,10.6,39,,
2017/12/13,3:00:00,12,��,4.5,-4.1,42.4,0,0,12,��,7.8,44,,
2017/12/13,4:00:00,11,���쐼,2.9,-3.9,44.8,0,0,12,��,6.3,3,,
2017/12/13,5:00:00,12,��,4,-3.9,44.7,0,0,12,��,6.9,51,,
2017/12/13,6:00:00,12,��,3.6,-3.8,44.4,0,0,11,���쐼,7.3,28,,
2017/12/13,7:00:00,12,��,5.8,-3,43.4,0,0.01,11,���쐼,8.3,55,,
2017/12/13,8:00:00,12,��,3.4,-3.4,37.7,0,0.12,11,���쐼,7.6,32,,
2017/12/13,9:00:00,12,��,1.2,-3.6,31,0,0.28,12,��,3.6,0,,
2017/12/13,10:00:00,16,�É�,0.2,0.6,25.7,0,0.42,12,��,4.6,18,,
2017/12/13,11:00:00,16,�É�,0,1.9,21.7,0,0.51,15,�k�k��,2.5,45,,
2017/12/13,12:00:00,15,�k�k��,1.3,2,21.6,0,0.56,14,�k��,3.9,34,,
2017/12/13,13:00:00,13,���k��,2.5,2,23.2,0,0.56,12,��,4.5,49,,
2017/12/13,14:00:00,13,���k��,2.9,2.4,30.5,0,0.43,14,�k��,5.2,59,,
2017/12/13,15:00:00,13,���k��,1.8,2.1,36.3,0,0.24,13,���k��,7,31,,
2017/12/13,16:00:00,13,���k��,0.5,0.6,38.8,0.5,0.08,12,��,4.8,2,,
2017/12/13,17:00:00,12,��,1.2,-0.8,47.6,0,0,12,��,3.8,58,,
2017/12/13,18:00:00,16,�É�,0,-0.9,50.6,0,0,2,�k��,4.1,10,,
2017/12/13,19:00:00,13,���k��,0.4,-1.8,54.6,0,0,13,���k��,2.3,54,,
2017/12/13,20:00:00,13,���k��,2.5,-0.8,59.8,0,0,13,���k��,5.6,31,,
2017/12/13,21:00:00,13,���k��,2.1,-1.9,61.1,0,0,13,���k��,3.8,52,,
2017/12/13,22:00:00,14,�k��,2.2,0.2,61.9,0,0,14,�k��,3.7,56,,
2017/12/13,23:00:00,13,���k��,2.2,0.5,61.1,0,0,14,�k��,4.3,12,,
2017/12/13,0:00:00,14,�k��,2.3,0.4,61.6,0,0,7,��쓌,3.5,59,,
2017/12/14,1:00:00,14,�k��,2.5,0.7,61.3,0,0,13,���k��,4.4,38,,
2017/12/14,2:00:00,14,�k��,2.6,0.8,61.9,0,0,14,�k��,5,42,,
2017/12/14,3:00:00,14,�k��,1.9,0.7,62,0,0,13,���k��,4.7,2,,
2017/12/14,4:00:00,14,�k��,1.3,-0.2,64.2,0,0,15,�k�k��,3.2,56,,
2017/12/14,5:00:00,16,�É�,0.2,-1.3,65.4,0,0,15,�k�k��,3.3,44,,
2017/12/14,6:00:00,14,�k��,1.1,-3.7,68.3,0,0,13,���k��,3,49,,
2017/12/14,7:00:00,13,���k��,1.4,-10,67.3,0,0.01,14,�k��,17.2,19,,
2017/12/14,8:00:00,14,�k��,1.5,-3.9,77.1,0,0.11,14,�k��,2.9,59,,
2017/12/14,9:00:00,14,�k��,0.4,-1.2,47.8,0,0.27,14,�k��,2.6,5,,
2017/12/14,10:00:00,14,�k��,0.5,1,33.9,0,0.41,1,�k�k��,9.6,24,,
2017/12/14,11:00:00,1,�k�k��,1.1,2.4,37.2,0,0.48,13,���k��,4.5,43,,
2017/12/14,12:00:00,2,�k��,1.9,2.5,44,0,0.5,1,�k�k��,7.1,4,,
2017/12/14,13:00:00,3,���k��,1.2,2.3,45.4,0,0.4,3,���k��,4.3,21,,
2017/12/14,14:00:00,1,�k�k��,0.7,2.8,41.2,0,0.38,2,�k��,3.9,17,,
2017/12/14,15:00:00,3,���k��,0.4,1.3,49.7,0,0.23,3,���k��,3.7,47,,
2017/12/14,16:00:00,16,�É�,0,-1.3,52.2,0,0.06,2,�k��,0.7,50,,
2017/12/14,17:00:00,16,�É�,0,-4.4,63,0,0,15,�k�k��,7.5,46,,
2017/12/14,18:00:00,16,�É�,0,-4.4,74.7,0,0,12,��,1.7,29,,
2017/12/14,19:00:00,16,�É�,0,-2.2,77.7,0,0,16,�k,1.3,22,,
2017/12/14,20:00:00,16,�É�,0,-3.1,74.6,0,0,16,�É�,0,0,,
2017/12/14,21:00:00,16,�É�,0,-1.9,75.4,0,0,14,�k��,0.3,57,,
2017/12/14,22:00:00,16,�É�,0,-2.8,73.2,0,0,14,�k��,0.7,2,,
2017/12/14,23:00:00,16,�É�,0,-3.6,74,0,0,16,�É�,0,0,,
2017/12/14,0:00:00,14,�k��,0.3,-5.4,75.2,0,0,13,���k��,2.3,44,,
2017/12/15,1:00:00,16,�É�,0.1,-6.9,78.1,0,0,13,���k��,1.2,55,,
2017/12/15,2:00:00,14,�k��,2.1,-5.9,85.4,0,0,13,���k��,3.8,55,,
2017/12/15,3:00:00,14,�k��,1.5,-5.8,80.6,0,0,14,�k��,7.1,58,,
2017/12/15,4:00:00,13,���k��,1,-9.2,79.7,0,0,13,���k��,3.4,32,,
2017/12/15,5:00:00,13,���k��,2,-6.9,82.9,0,0,14,�k��,3.8,11,,
2017/12/15,6:00:00,13,���k��,2.5,-7.5,83.3,0,0,14,�k��,4.2,50,,
2017/12/15,7:00:00,13,���k��,2.1,-10.4,78.8,0,0.01,14,�k��,4.2,2,,
2017/12/15,8:00:00,14,�k��,1,-8.5,86.2,0,0.05,12,��,3.4,38,,
2017/12/15,9:00:00,12,��,2.2,-7.9,73.4,0,0.17,13,���k��,3.2,52,,
2017/12/15,10:00:00,16,�É�,0,-4.1,57.5,0,0.38,14,�k��,3.7,9,,
2017/12/15,11:00:00,16,�É�,0,-3.5,51.8,0,0.25,13,���k��,1.9,10,,
2017/12/15,12:00:00,16,�É�,0,-2.1,55.3,0,0.17,16,�É�,0,0,,
2017/12/15,13:00:00,16,�É�,0,-1.3,55.5,0,0.22,16,�É�,0,0,,
2017/12/15,14:00:00,16,�É�,0,1,41.9,0,0.32,16,�É�,0,0,,
2017/12/15,15:00:00,16,�É�,0,0.1,43.5,0.5,0.27,16,�É�,0,0,,
2017/12/15,16:00:00,7,��쓌,0.9,0.6,63.6,0,0.04,11,���쐼,3.6,51,,
2017/12/15,17:00:00,12,��,0.8,-5.4,66.8,0,0,13,���k��,2.5,2,,
2017/12/15,18:00:00,16,�É�,0,-6,75.8,0,0,12,��,2.6,39,,
2017/12/15,19:00:00,12,��,0.3,-7.8,84.8,0,0,13,���k��,2.5,31,,
2017/12/15,20:00:00,13,���k��,0.3,-9.7,85.5,0,0,12,��,3.1,58,,
2017/12/15,21:00:00,13,���k��,1.4,-9.5,88.6,0,0,13,���k��,3.9,55,,
2017/12/15,22:00:00,12,��,1.4,-9.3,91.5,0,0,12,��,4.6,35,,
2017/12/15,23:00:00,13,���k��,1.9,-10.9,86.2,0,0,13,���k��,4,11,,
2017/12/15,0:00:00,16,�É�,0.2,-10.3,88.3,0,0,12,��,3.9,21,,
2017/12/16,1:00:00,13,���k��,1.6,-10.5,90.3,0,0,12,��,3.6,24,,
2017/12/16,2:00:00,13,���k��,1.8,-10.7,89.4,0,0,13,���k��,2.7,58,,
2017/12/16,3:00:00,16,�É�,0,-11.4,88.3,0,0,12,��,3,20,,
2017/12/16,4:00:00,13,���k��,1.7,-10.8,90.5,0,0,13,���k��,2.7,53,,
2017/12/16,5:00:00,13,���k��,1.4,-8.8,95,0,0,11,���쐼,3,49,,
2017/12/16,6:00:00,13,���k��,1,-8.1,89.7,0,0,14,�k��,3.8,10,,
2017/12/16,7:00:00,13,���k��,2,-7.3,89.4,0,0.01,12,��,2.6,59,,
2017/12/16,8:00:00,15,�k�k��,1.2,-4.4,93.5,0,0.04,13,���k��,4.1,37,,
2017/12/16,9:00:00,14,�k��,1.8,-3.7,93.8,0,0.07,15,�k�k��,6.9,1,,
2017/12/16,10:00:00,13,���k��,2,-2.4,91.1,0,0.17,14,�k��,3.8,37,,
2017/12/16,11:00:00,14,�k��,3.8,-2.6,73.1,0,0.37,15,�k�k��,6.2,57,,
2017/12/16,12:00:00,14,�k��,3,-1.7,72.7,0,0.34,14,�k��,6.6,40,,
2017/12/16,13:00:00,13,���k��,3.6,-1.8,70.2,0.5,0.28,10,�쐼,6,8,,
2017/12/16,14:00:00,12,��,2.1,0.1,67.5,0,0.22,11,���쐼,5.6,36,,
2017/12/16,15:00:00,16,�É�,0.1,-1.2,65,0.5,0.14,16,�k,2.4,42,,
2017/12/16,16:00:00,16,�É�,0,-4.5,74.4,0,0.03,16,�É�,0,0,,
2017/12/16,17:00:00,14,�k��,0.9,-8.3,80.8,0,0,14,�k��,1.8,58,,
2017/12/16,18:00:00,14,�k��,1,-7.2,93.7,0,0,13,���k��,3.4,54,,
2017/12/16,19:00:00,13,���k��,0.8,-7.8,92.3,0,0,12,��,4,28,,